JST508 YMML-YSSY

Flight info

Callsign JST508
Flight time 1h 6m
Altitude 35000
Route DOSEL Y59 RIVET
Aircraft A320/M-SDE3FGHIRWY/LB1

Departure

Time 2026-05-06 17:05
Airport Melbourne Airport (YMML)

Arrival

Time 2026-05-06 18:12
Airport Sydney Kingsford Smith International Airport (YSSY)
Time Latitude Longitude Altitude Speed Heading
2026-05-06 16:30 -37.67283 144.84392 382 ft 0 kts 129°
2026-05-06 16:48 -37.67280 144.84387 382 ft 2 kts 124°
2026-05-06 16:48 -37.67274 144.84368 382 ft 3 kts 98°
2026-05-06 16:48 -37.67270 144.84347 381 ft 3 kts 114°
2026-05-06 16:48 -37.67265 144.84326 381 ft 3 kts 79°
2026-05-06 16:49 -37.67272 144.84305 381 ft 3 kts 44°
2026-05-06 16:49 -37.67287 144.84291 380 ft 3 kts 17°
2026-05-06 16:49 -37.67302 144.84288 380 ft 1 kts 352°
2026-05-06 16:49 -37.67303 144.84288 380 ft 0 kts 351°
2026-05-06 16:51 -37.67299 144.84287 380 ft 4 kts 351°
2026-05-06 16:52 -37.67250 144.84278 381 ft 8 kts 351°
2026-05-06 16:52 -37.67185 144.84265 382 ft 13 kts 351°
2026-05-06 16:52 -37.67097 144.84248 384 ft 14 kts 353°
2026-05-06 16:52 -37.66996 144.84233 386 ft 15 kts 352°
2026-05-06 16:53 -37.66890 144.84213 389 ft 16 kts 351°
2026-05-06 16:53 -37.66784 144.84192 392 ft 15 kts 351°
2026-05-06 16:53 -37.66681 144.84172 397 ft 15 kts 351°
2026-05-06 16:53 -37.66579 144.84184 400 ft 16 kts 29°
2026-05-06 16:54 -37.66527 144.84308 403 ft 17 kts 83°
2026-05-06 16:54 -37.66511 144.84464 404 ft 18 kts 82°
2026-05-06 16:54 -37.66492 144.84626 406 ft 19 kts 82°
2026-05-06 16:54 -37.66438 144.84762 407 ft 18 kts 32°
2026-05-06 16:55 -37.66345 144.84785 411 ft 0 kts
2026-05-06 16:55 -37.66343 144.84785 412 ft 0 kts
2026-05-06 17:00 -37.66331 144.84786 410 ft 7 kts
2026-05-06 17:00 -37.66273 144.84780 413 ft 9 kts 345°
2026-05-06 17:01 -37.66219 144.84724 412 ft 10 kts 285°
2026-05-06 17:01 -37.66220 144.84680 413 ft 0 kts 274°
2026-05-06 17:04 -37.66220 144.84678 413 ft 1 kts 274°
2026-05-06 17:05 -37.66210 144.84524 412 ft 49 kts 274°
2026-05-06 17:05 -37.66171 144.83847 413 ft 104 kts 274°
2026-05-06 17:05 -37.66110 144.82823 547 ft 131 kts 275°
2026-05-06 17:05 -37.66014 144.81737 1116 ft 132 kts 274°
2026-05-06 17:06 -37.65889 144.80603 1753 ft 128 kts 272°
2026-05-06 17:06 -37.65743 144.79503 2216 ft 132 kts 274°
2026-05-06 17:06 -37.65581 144.78263 2436 ft 153 kts 273°
2026-05-06 17:06 -37.65408 144.76879 2740 ft 168 kts 273°
2026-05-06 17:07 -37.65227 144.75371 3143 ft 179 kts 273°
2026-05-06 17:07 -37.65048 144.73746 3533 ft 197 kts 270°
2026-05-06 17:07 -37.64992 144.71949 3906 ft 218 kts 264°
2026-05-06 17:07 -37.65008 144.69972 4616 ft 229 kts 265°
2026-05-06 17:08 -37.64756 144.67939 5469 ft 243 kts 282°
2026-05-06 17:08 -37.63896 144.66028 6324 ft 261 kts 303°
2026-05-06 17:08 -37.62421 144.64590 7137 ft 281 kts 327°
2026-05-06 17:08 -37.60519 144.63786 7967 ft 291 kts 337°
2026-05-06 17:09 -37.58549 144.63078 8815 ft 295 kts 339°
2026-05-06 17:09 -37.56484 144.62755 9641 ft 307 kts 357°
2026-05-06 17:09 -37.54358 144.63270 10426 ft 318 kts 18°
2026-05-06 17:09 -37.52378 144.64654 10729 ft 343 kts 39°
2026-05-06 17:10 -37.50752 144.66972 11007 ft 361 kts 54°
2026-05-06 17:10 -37.49233 144.69569 11610 ft 367 kts 54°
2026-05-06 17:10 -37.48222 144.71275 12079 ft 369 kts 53°
2026-05-06 17:10 -37.46810 144.73994 12804 ft 371 kts 60°
2026-05-06 17:11 -37.45510 144.76822 13534 ft 374 kts 60°
2026-05-06 17:11 -37.44210 144.79652 14200 ft 377 kts 60°
2026-05-06 17:11 -37.42453 144.83486 14966 ft 382 kts 60°
2026-05-06 17:11 -37.41569 144.85414 15340 ft 384 kts 60°
2026-05-06 17:12 -37.40239 144.88313 15885 ft 388 kts 60°
2026-05-06 17:12 -37.38900 144.91224 16452 ft 392 kts 59°
2026-05-06 17:12 -37.37519 144.94222 17016 ft 396 kts 59°
2026-05-06 17:12 -37.36138 144.97212 17461 ft 403 kts 58°
2026-05-06 17:13 -37.34724 145.00273 17980 ft 408 kts 58°
2026-05-06 17:13 -37.33295 145.03366 18584 ft 410 kts 57°
2026-05-06 17:13 -37.31843 145.06506 19115 ft 413 kts 57°
2026-05-06 17:13 -37.30386 145.09662 19594 ft 417 kts 57°
2026-05-06 17:14 -37.28928 145.12818 20077 ft 422 kts 57°
2026-05-06 17:14 -37.27447 145.16023 20550 ft 426 kts 56°
2026-05-06 17:14 -37.25945 145.19268 21008 ft 430 kts 56°
2026-05-06 17:14 -37.24434 145.22519 21442 ft 434 kts 56°
2026-05-06 17:15 -37.22905 145.25805 21883 ft 438 kts 56°
2026-05-06 17:15 -37.21361 145.29117 22349 ft 441 kts 55°
2026-05-06 17:15 -37.19802 145.32459 22799 ft 445 kts 54°
2026-05-06 17:15 -37.18233 145.35821 23226 ft 448 kts 54°
2026-05-06 17:16 -37.16668 145.39153 23631 ft 451 kts 52°
2026-05-06 17:16 -37.14879 145.42386 23997 ft 451 kts 49°
2026-05-06 17:16 -37.13015 145.45639 24294 ft 455 kts 47°
2026-05-06 17:16 -37.11182 145.48829 24634 ft 458 kts 47°
2026-05-06 17:17 -37.09293 145.52119 24981 ft 461 kts 47°
2026-05-06 17:17 -37.07444 145.55339 25450 ft 460 kts 47°
2026-05-06 17:17 -37.05577 145.58591 25881 ft 461 kts 47°
2026-05-06 17:17 -37.03699 145.61858 26252 ft 462 kts 47°
2026-05-06 17:18 -37.01812 145.65132 26567 ft 465 kts 47°
2026-05-06 17:18 -36.99911 145.68419 26870 ft 469 kts 47°
2026-05-06 17:18 -36.97993 145.71735 27184 ft 472 kts 47°
2026-05-06 17:18 -36.96061 145.75072 27525 ft 475 kts 47°
2026-05-06 17:19 -36.94124 145.78418 27882 ft 477 kts 47°
2026-05-06 17:19 -36.92176 145.81785 28353 ft 476 kts 46°
2026-05-06 17:19 -36.90235 145.85141 28776 ft 477 kts 47°
2026-05-06 17:19 -36.88276 145.88521 29096 ft 480 kts 46°
2026-05-06 17:20 -36.86316 145.91889 29398 ft 483 kts 46°
2026-05-06 17:20 -36.84347 145.95265 29727 ft 486 kts 46°
2026-05-06 17:20 -36.82357 145.98678 30066 ft 488 kts 47°
2026-05-06 17:20 -36.80350 146.02123 30350 ft 491 kts 47°
2026-05-06 17:21 -36.78315 146.05617 30714 ft 491 kts 46°
2026-05-06 17:21 -36.76348 146.08997 31186 ft 488 kts 46°
2026-05-06 17:21 -36.74360 146.12410 31532 ft 488 kts 45°
2026-05-06 17:21 -36.72362 146.15829 31896 ft 488 kts 45°
2026-05-06 17:22 -36.70356 146.19256 32304 ft 487 kts 45°
2026-05-06 17:22 -36.68356 146.22665 32686 ft 487 kts 45°
2026-05-06 17:22 -36.66363 146.26052 33110 ft 486 kts 45°
2026-05-06 17:22 -36.64361 146.29453 33529 ft 485 kts 45°
2026-05-06 17:23 -36.62373 146.32835 33917 ft 483 kts 44°
2026-05-06 17:23 -36.60400 146.36198 34389 ft 480 kts 44°
2026-05-06 17:23 -36.58438 146.39538 34720 ft 479 kts 45°
2026-05-06 17:23 -36.56472 146.42880 35004 ft 480 kts 45°
2026-05-06 17:24 -36.54489 146.46239 35118 ft 482 kts 45°
2026-05-06 17:24 -36.50490 146.52985 35134 ft 489 kts 45°
2026-05-06 17:25 -36.46383 146.59889 35147 ft 504 kts 45°
2026-05-06 17:25 -36.42186 146.66964 35124 ft 511 kts 45°
2026-05-06 17:26 -36.37964 146.74089 35112 ft 512 kts 45°
2026-05-06 17:26 -36.33737 146.81198 35123 ft 512 kts 45°
2026-05-06 17:27 -36.29519 146.88256 35121 ft 512 kts 45°
2026-05-06 17:27 -36.25266 146.95352 35107 ft 512 kts 45°
2026-05-06 17:28 -36.21014 147.02443 35060 ft 513 kts 45°
2026-05-06 17:28 -36.16757 147.09535 35070 ft 513 kts 44°
2026-05-06 17:29 -36.12485 147.16622 35079 ft 514 kts 44°
2026-05-06 17:29 -36.08218 147.23682 35082 ft 513 kts 44°
2026-05-06 17:30 -36.03945 147.30757 35060 ft 513 kts 44°
2026-05-06 17:30 -35.99670 147.37808 35071 ft 513 kts 44°
2026-05-06 17:31 -35.95389 147.44859 35091 ft 512 kts 44°
2026-05-06 17:31 -35.91114 147.51888 35090 ft 511 kts 44°
2026-05-06 17:32 -35.86845 147.58888 35087 ft 511 kts 44°
2026-05-06 17:32 -35.82575 147.65867 35082 ft 510 kts 44°
2026-05-06 17:33 -35.78301 147.72847 35059 ft 509 kts 44°
2026-05-06 17:33 -35.74027 147.79813 35074 ft 509 kts 44°
2026-05-06 17:34 -35.69759 147.86762 35075 ft 508 kts 44°
2026-05-06 17:34 -35.65523 147.93654 35033 ft 508 kts 43°
2026-05-06 17:35 -35.61260 148.00560 35070 ft 507 kts 43°
2026-05-06 17:35 -35.57000 148.07455 35076 ft 506 kts 43°
2026-05-06 17:36 -35.50614 148.17747 35013 ft 505 kts 43°
2026-05-06 17:36 -35.46344 148.24611 35048 ft 504 kts 43°
2026-05-06 17:37 -35.42095 148.31435 35063 ft 503 kts 43°
2026-05-06 17:37 -35.37845 148.38244 35057 ft 502 kts 43°
2026-05-06 17:38 -35.35749 148.41615 35020 ft 489 kts 43°
2026-05-06 17:38 -35.33713 148.44896 35052 ft 480 kts 43°
2026-05-06 17:38 -35.29672 148.51346 35043 ft 475 kts 43°
2026-05-06 17:39 -35.25673 148.57688 35045 ft 473 kts 43°
2026-05-06 17:39 -35.21646 148.64081 35014 ft 473 kts 43°
2026-05-06 17:40 -35.17624 148.70455 35043 ft 476 kts 43°
2026-05-06 17:40 -35.13581 148.76873 35049 ft 476 kts 43°
2026-05-06 17:41 -35.09539 148.83284 35058 ft 476 kts 43°
2026-05-06 17:41 -35.05503 148.89662 35020 ft 475 kts 43°
2026-05-06 17:42 -35.01443 148.96056 35033 ft 476 kts 42°
2026-05-06 17:42 -34.97385 149.02428 35035 ft 476 kts 42°
2026-05-06 17:43 -34.95354 149.05616 34806 ft 476 kts 42°
2026-05-06 17:43 -34.93362 149.08752 34576 ft 473 kts 42°
2026-05-06 17:43 -34.91333 149.11945 34237 ft 469 kts 42°
2026-05-06 17:43 -34.89362 149.15047 33708 ft 467 kts 42°
2026-05-06 17:44 -34.87388 149.18140 33183 ft 464 kts 42°
2026-05-06 17:44 -34.85407 149.21240 32664 ft 461 kts 42°
2026-05-06 17:44 -34.83435 149.24318 32144 ft 459 kts 42°
2026-05-06 17:44 -34.81477 149.27368 31615 ft 456 kts 42°
2026-05-06 17:45 -34.79532 149.30396 31096 ft 454 kts 43°
2026-05-06 17:45 -34.77585 149.33424 30588 ft 451 kts 43°
2026-05-06 17:45 -34.75660 149.36420 30040 ft 448 kts 43°
2026-05-06 17:45 -34.73840 149.39496 29605 ft 449 kts 50°
2026-05-06 17:46 -34.72337 149.42829 29146 ft 448 kts 54°
2026-05-06 17:46 -34.70899 149.46159 28723 ft 443 kts 54°
2026-05-06 17:46 -34.69469 149.49457 28275 ft 438 kts 54°
2026-05-06 17:46 -34.68050 149.52713 27868 ft 433 kts 54°
2026-05-06 17:47 -34.66646 149.55924 27458 ft 428 kts 54°
2026-05-06 17:47 -34.65260 149.59094 27064 ft 424 kts 54°
2026-05-06 17:47 -34.63877 149.62250 26662 ft 420 kts 54°
2026-05-06 17:47 -34.62511 149.65363 26283 ft 416 kts 54°
2026-05-06 17:48 -34.61153 149.68452 25870 ft 413 kts 54°
2026-05-06 17:48 -34.59811 149.71503 25482 ft 410 kts 54°
2026-05-06 17:48 -34.58472 149.74548 25092 ft 407 kts 55°
2026-05-06 17:48 -34.57144 149.77572 24692 ft 404 kts 55°
2026-05-06 17:49 -34.55840 149.80539 24299 ft 402 kts 55°
2026-05-06 17:49 -34.54526 149.83524 23872 ft 400 kts 55°
2026-05-06 17:49 -34.53215 149.86497 23430 ft 399 kts 55°
2026-05-06 17:49 -34.51910 149.89454 22999 ft 395 kts 55°
2026-05-06 17:50 -34.50624 149.92369 22600 ft 391 kts 55°
2026-05-06 17:50 -34.49345 149.95270 22169 ft 387 kts 55°
2026-05-06 17:50 -34.48081 149.98138 21770 ft 384 kts 55°
2026-05-06 17:50 -34.46821 150.00987 21343 ft 381 kts 55°
2026-05-06 17:51 -34.45579 150.03789 20941 ft 378 kts 55°
2026-05-06 17:51 -34.44338 150.06589 20518 ft 376 kts 55°
2026-05-06 17:51 -34.43113 150.09347 20114 ft 373 kts 55°
2026-05-06 17:51 -34.41868 150.12149 19700 ft 371 kts 55°
2026-05-06 17:52 -34.40644 150.14897 19294 ft 370 kts 55°
2026-05-06 17:52 -34.39426 150.17635 18869 ft 368 kts 56°
2026-05-06 17:52 -34.38217 150.20351 18469 ft 366 kts 55°
2026-05-06 17:52 -34.37020 150.23039 18034 ft 364 kts 56°
2026-05-06 17:53 -34.35826 150.25719 17622 ft 360 kts 56°
2026-05-06 17:53 -34.34633 150.28393 17227 ft 357 kts 56°
2026-05-06 17:53 -34.33453 150.31032 16813 ft 355 kts 56°
2026-05-06 17:53 -34.32284 150.33646 16448 ft 353 kts 56°
2026-05-06 17:54 -34.31134 150.36215 16045 ft 351 kts 56°
2026-05-06 17:54 -34.29956 150.38840 15644 ft 350 kts 56°
2026-05-06 17:54 -34.28797 150.41421 15240 ft 349 kts 56°
2026-05-06 17:54 -34.27650 150.43974 14844 ft 348 kts 57°
2026-05-06 17:55 -34.26518 150.46498 14471 ft 347 kts 57°
2026-05-06 17:55 -34.25373 150.49059 14076 ft 345 kts 57°
2026-05-06 17:55 -34.24254 150.51567 13682 ft 344 kts 57°
2026-05-06 17:55 -34.23101 150.54146 13255 ft 342 kts 57°
2026-05-06 17:56 -34.21976 150.56665 12872 ft 339 kts 57°
2026-05-06 17:56 -34.20857 150.59168 12491 ft 337 kts 57°
2026-05-06 17:56 -34.19746 150.61641 12151 ft 333 kts 58°
2026-05-06 17:56 -34.18649 150.64078 11787 ft 331 kts 58°
2026-05-06 17:57 -34.17546 150.66535 11395 ft 329 kts 58°
2026-05-06 17:57 -34.16456 150.68962 11020 ft 328 kts 58°
2026-05-06 17:57 -34.15367 150.71377 10630 ft 327 kts 58°
2026-05-06 17:57 -34.14278 150.73792 10255 ft 327 kts 58°
2026-05-06 17:58 -34.13563 150.75376 10058 ft 324 kts 58°
2026-05-06 17:58 -34.12151 150.78506 9862 ft 311 kts 58°
2026-05-06 17:58 -34.11472 150.80017 9775 ft 304 kts 59°
2026-05-06 17:58 -34.10480 150.82224 9354 ft 296 kts 58°
2026-05-06 17:59 -34.09514 150.84366 8981 ft 286 kts 59°
2026-05-06 17:59 -34.08573 150.86454 8542 ft 283 kts 59°
2026-05-06 17:59 -34.07634 150.88536 8221 ft 282 kts 59°
2026-05-06 17:59 -34.06712 150.90582 7951 ft 273 kts 59°
2026-05-06 18:00 -34.05826 150.92554 7674 ft 267 kts 59°
2026-05-06 18:00 -34.04937 150.94527 7421 ft 265 kts 59°
2026-05-06 18:00 -34.04068 150.96481 7162 ft 264 kts 64°
2026-05-06 18:00 -34.03575 150.98599 6903 ft 265 kts 84°
2026-05-06 18:01 -34.03664 151.00735 6716 ft 260 kts 103°
2026-05-06 18:01 -34.04308 151.02770 6586 ft 250 kts 123°
2026-05-06 18:01 -34.05359 151.04378 6451 ft 239 kts 138°
2026-05-06 18:01 -34.06475 151.05780 6139 ft 233 kts 138°
2026-05-06 18:02 -34.07700 151.07012 5777 ft 226 kts 152°
2026-05-06 18:02 -34.09065 151.07877 5368 ft 220 kts 163°
2026-05-06 18:02 -34.10508 151.08373 5155 ft 212 kts 174°
2026-05-06 18:02 -34.11936 151.08733 4987 ft 208 kts 174°
2026-05-06 18:03 -34.13344 151.09101 4789 ft 205 kts 174°
2026-05-06 18:03 -34.14710 151.09461 4574 ft 199 kts 175°
2026-05-06 18:03 -34.16044 151.09811 4396 ft 197 kts 175°
2026-05-06 18:03 -34.17367 151.10158 4212 ft 193 kts 175°
2026-05-06 18:04 -34.18668 151.10498 4030 ft 189 kts 175°
2026-05-06 18:04 -34.19948 151.10868 3949 ft 192 kts 167°
2026-05-06 18:04 -34.21074 151.11749 3885 ft 205 kts 140°
2026-05-06 18:04 -34.21795 151.13284 3821 ft 217 kts 109°
2026-05-06 18:05 -34.21815 151.15113 3726 ft 221 kts 75°
2026-05-06 18:05 -34.21122 151.16746 3645 ft 220 kts 52°
2026-05-06 18:05 -34.20237 151.18269 3581 ft 221 kts 52°
2026-05-06 18:05 -34.19356 151.19789 3491 ft 220 kts 52°
2026-05-06 18:06 -34.18444 151.21276 3416 ft 219 kts 42°
2026-05-06 18:06 -34.17258 151.22356 3322 ft 212 kts 19°
2026-05-06 18:06 -34.15879 151.22862 3185 ft 202 kts 357°
2026-05-06 18:06 -34.14529 151.22777 3047 ft 189 kts 337°
2026-05-06 18:07 -34.13240 151.22439 2998 ft 190 kts 337°
2026-05-06 18:07 -34.11946 151.22102 2989 ft 189 kts 340°
2026-05-06 18:07 -34.10691 151.21778 2859 ft 182 kts 340°
2026-05-06 18:07 -34.09477 151.21462 2649 ft 176 kts 340°
2026-05-06 18:08 -34.08293 151.21153 2426 ft 172 kts 341°
2026-05-06 18:08 -34.07152 151.20856 2191 ft 167 kts 340°
2026-05-06 18:08 -34.06032 151.20565 1995 ft 160 kts 341°
2026-05-06 18:08 -34.04977 151.20292 1790 ft 146 kts 341°
2026-05-06 18:09 -34.04005 151.20039 1589 ft 141 kts 341°
2026-05-06 18:09 -34.03069 151.19794 1391 ft 139 kts 341°
2026-05-06 18:09 -34.02116 151.19545 1207 ft 141 kts 342°
2026-05-06 18:09 -34.01155 151.19295 1015 ft 141 kts 341°
2026-05-06 18:10 -34.00197 151.19046 822 ft 140 kts 342°
2026-05-06 18:10 -33.99256 151.18801 635 ft 139 kts 344°
2026-05-06 18:10 -33.98306 151.18554 427 ft 139 kts 342°
2026-05-06 18:10 -33.97369 151.18314 291 ft 139 kts 346°
2026-05-06 18:11 -33.96417 151.18069 100 ft 140 kts 342°
2026-05-06 18:11 -33.95505 151.17844 32 ft 124 kts 343°
2026-05-06 18:11 -33.94839 151.17642 29 ft 75 kts 350°
2026-05-06 18:11 -33.94499 151.17560 30 ft 51 kts 346°
2026-05-06 18:12 -33.94163 151.17478 29 ft 48 kts 348°
2026-05-06 18:12 -33.93847 151.17397 27 ft 45 kts 348°
2026-05-06 18:12 -33.93589 151.17334 27 ft 22 kts 348°
2026-05-06 18:12 -33.93487 151.17378 28 ft 10 kts 81°
2026-05-06 18:13 -33.93486 151.17385 28 ft 1 kts 83°
2026-05-06 18:13 -33.93485 151.17400 28 ft 2 kts 83°
2026-05-06 18:13 -33.93482 151.17425 29 ft 4 kts 80°
2026-05-06 18:13 -33.93476 151.17459 29 ft 5 kts 77°
2026-05-06 18:14 -33.93467 151.17506 30 ft 7 kts 77°
2026-05-06 18:14 -33.93460 151.17542 30 ft 2 kts 77°
2026-05-06 18:14 -33.93455 151.17565 30 ft 4 kts 69°
2026-05-06 18:14 -33.93431 151.17588 30 ft 6 kts 22°
2026-05-06 18:15 -33.93398 151.17615 30 ft 7 kts 68°
2026-05-06 18:15 -33.93406 151.17674 30 ft 6 kts 99°
2026-05-06 18:15 -33.93410 151.17703 30 ft 2 kts 99°
2026-05-06 18:15 -33.93410 151.17709 30 ft 0 kts 99°
2026-05-06 18:16 -33.93411 151.17714 30 ft 0 kts 99°